Volver al catálogo

FASTSAT-HSV01

USA 220

ActivoCienciaLEO
NORAD 37225·PAYLOAD·🇺🇸 United States

Lanzado Nov 20, 2010 desde Kodiak Launch Complex

Loading…

Próximos Pases (próximas 24 horas)

TLE

ActualizadoSource: Space-Track

Época: Sep 14, 2026, 14:09 UTC

1 37225U 10062D   26257.59016881  .00000313  00000-0  46426-4 0  9991
2 37225  71.9733 320.8684 0018030 315.1321  44.8385 14.82213943127379

Sigue FASTSAT-HSV01 en tiempo real con AllMySat

Download on the App Store